Location: ?
(35.3436°N, 139.3168°E)
Time: 11:14:13
(UTC+00:00)

X-37B - Pass Details

Date: 09 May 2021
Orbit: 386 x 389 km, 45.0° (Epoch: 10 June)

Event Time Altitude Azimuth Distance (km) Brightness Sun altitude
Rises 12:40:27 0° 306° (NW) 2,271 5.5 -30.1°
Reaches altitude 10° 12:42:39 10° 316° (NW) 1,414 4.3 -30.4°
Enters shadow 12:42:49 11° 317° (NW) 1,354 4.2 -30.4°
